This is the latest recevied weather packets stored in our database for station/object KO4LCK. If no packets are shown the sender has not sent any weather packets the latest 10 day(s).
| Time | Temp. | Humidity | Pressure | Rain* | Wind** | Luminosity | Snow |
|---|---|---|---|---|---|---|---|
| 1777942389 | 19.44° C | 57% | 1014.2 hPa | 0 mm | - | 0 W/m² | - |
| 1777942086 | 19.44° C | 55% | 1014.1 hPa | 0 mm | - | 0 W/m² | - |
| 1777941782 | 20° C | 57% | 1014.3 hPa | 0 mm | - | 0 W/m² | - |
| 1777941480 | 20° C | 53% | 1014.1 hPa | 0 mm | - | 0 W/m² | - |
| 1777941177 | 20.56° C | 53% | 1014.1 hPa | 0 mm | - | 1 W/m² | - |
| 1777940873 | 21.11° C | 53% | 1014.2 hPa | 0 mm | - | 2 W/m² | - |
| 1777940571 | 21.11° C | 52% | 1014.2 hPa | 0 mm | - | 4 W/m² | - |
| 1777940269 | 21.67° C | 52% | 1014 hPa | 0 mm | - | 6 W/m² | - |
| 1777939965 | 22.22° C | 48% | 1014.1 hPa | 0 mm | - | 9 W/m² | - |
| 1777939662 | 22.78° C | 47% | 1014.1 hPa | 0 mm | - | 12 W/m² | - |
| 1777939360 | 22.78° C | 46% | 1014.1 hPa | 0 mm | - | 13 W/m² | - |
| 1777939057 | 23.33° C | 43% | 1014.1 hPa | 0 mm | - | 16 W/m² | - |
| 1777938753 | 23.33° C | 44% | 1014 hPa | 0 mm | - | 17 W/m² | - |
| 1777938450 | 23.33° C | 44% | 1014 hPa | 0 mm | - | 16 W/m² | - |
| 1777938147 | 23.33° C | 47% | 1014.1 hPa | 0 mm | - | 17 W/m² | - |
| 1777937843 | 23.89° C | 43% | 1013.9 hPa | 0 mm | - | 23 W/m² | - |
| 1777937539 | 23.89° C | 43% | 1014 hPa | 0 mm | - | 25 W/m² | - |
| 1777937237 | 24.44° C | 41% | 1014 hPa | 0 mm | - | 25 W/m² | - |
| 1777936934 | 24.44° C | 40% | 1014 hPa | 0 mm | - | 31 W/m² | - |
| 1777936630 | 24.44° C | 40% | 1014.1 hPa | 0 mm | - | 33 W/m² | - |
| 1777936327 | 24.44° C | 39% | 1013.9 hPa | 0 mm | - | 34 W/m² | - |
| 1777936023 | 25° C | 37% | 1014 hPa | 0 mm | - | 36 W/m² | - |
| 1777935722 | 25° C | 36% | 1014.1 hPa | 0 mm | - | 37 W/m² | - |
| 1777935420 | 25.56° C | 36% | 1014.2 hPa | 0 mm | - | 39 W/m² | - |
| 1777935115 | 26.11° C | 37% | 1013.9 hPa | 0 mm | - | 57 W/m² | - |
* Rain latest hour (hover to see other rain measurements)
** Current wind speed in m/s (hover to see current wind gust speed)